Flag for Brazil Weather past 2 weeks in Campo Grande, Mato Grosso Do Sul, Brazil

Now
54 °F

Passing clouds.


Feels Like: 53 °F
Forecast: 52 / 58 °F
Wind: 5 mph from South

Location: Campo Grande Aeroporto

Current Time: Jul 4, 2015 at 3:12:36 PM

Latest Report: Jul 4, 2015 at 3:00 PM


Visibility: N/A

Pressure: 30.15 "Hg (28.34 "Hg at 516m altitude)

Humidity: 88%

Dew point: 50 °F

Location of Campo GrandeLocation

Historic Weather in Campo Grande — Graph

°F

Campo Grande temperature yesterday

Maximum temperature yesterday: 82 °F (at 12:00 PM)
Minimum temperature yesterday: 39 °F (at 5:00 PM)
Average temperature yesterday: 70 °F

Past Weeks' High & Low Weather Summary

 TemperatureHumidityPressure
High84 °F (Jun 21, 3:00 PM)100% (Jul 1, 4:00 AM)30.30 "Hg (Jul 1, 4:00 AM)
Low39 °F (Jul 3, 5:00 PM)39% (Jun 22, 2:00 PM)28.23 "Hg (Jun 23, 4:00 AM)
Average69 °F69%30.11 "Hg
* Reported Jun 19 2:00 PM — Jul 4 2:00 PM, Campo Grande, Weather by CustomWeather, © 2015

Note: Actual official high and low records may vary slightly from our data, if they occured in-between our weather recording intervals... More about our weather records

Advertising

Campo Grande weather history for previous 24 hours

 ConditionsComfort  
Time TempWeatherWind HumidityBarometerVisibility
2:00 PM
Sat, Jul 4
54 °FBroken clouds.6 mph88%30.15 "HgN/A
1:00 PM54 °FScattered clouds.7 mph88%30.12 "HgN/A
12:00 PM52 °FLight rain. Partly sunny.9 mph94%30.15 "Hg5 mi
11:00 AM52 °FLight rain. Partly sunny.9 mph94%30.18 "Hg4 mi
10:00 AM52 °FLight rain. Partly sunny.9 mph88%30.18 "HgN/A
9:00 AM52 °FPartly sunny.12 mph94%30.18 "HgN/A
8:00 AM54 °FPartly sunny.14 mph88%30.12 "HgN/A
7:00 AM54 °FPartly sunny.14 mph88%30.09 "HgN/A
6:00 AM54 °FPartly sunny.16 mph94%30.09 "HgN/A
5:00 AM54 °FPassing clouds.14 mph100%30.09 "HgN/A
4:00 AM55 °FPassing clouds.16 mph100%30.04 "HgN/A
3:00 AM59 °FPassing clouds.14 mph94%30.04 "HgN/A
2:00 AM59 °FLight rain. Passing clouds.15 mph100%30.04 "HgN/A
1:00 AMN/ALight rain.9 mphN/AN/A3 mi
12:00 AMN/ALight rain.10 mphN/AN/A3 mi
11:00 PM
Fri, Jul 3
N/ALight rain.5 mphN/AN/A3 mi
10:00 PM64 °FThunderstorms. Passing clouds.8 mph94%N/AN/A
9:00 PM66 °FThunderstorms. Passing clouds.5 mph94%N/AN/A
8:00 PM66 °FThunderstorms. Partly cloudy.8 mph94%30.01 "Hg4 mi
7:00 PM68 °FThunderstorms. Passing clouds.10 mph94%N/AN/A
6:00 PM72 °FThundershowers. Partly cloudy.9 mph83%29.92 "HgN/A
5:00 PM39 °FScattered showers. Partly cloudy.13 mph100%29.92 "HgN/A
4:00 PM43 °FScattered showers. Broken clouds.10 mph100%29.89 "HgN/A
3:00 PM81 °FBroken clouds.14 mph51%29.86 "HgN/A
Weather by CustomWeather, © 2015

See weather overviewHow to use our weather pages